Anapa, Russia

7:16 PM MSK on August 21, 2017 (GMT +0300)
Vityazevo

Weather History for URKA - December, 2012

Change the Weather History Date:

Wednesday, December 12, 2012

  Actual Average Record
Temperature  
Mean Temperature 46 °F -  
Max Temperature 56 °F - - ()
Min Temperature 37 °F - - ()
Degree Days  
Heating Degree Days 18    
Moisture  
Dew Point 43 °F    
Average Humidity 79    
Maximum Humidity 93    
Minimum Humidity 59    
Precipitation  
Precipitation 0.00 in - - ()
Sea Level Pressure  
Sea Level Pressure 29.92 in    
Wind  
Wind Speed 15 mph ()    
Max Wind Speed 25 mph    
Max Gust Speed 34 mph    
Visibility 6.2 miles    
Events Rain    
T = Trace of Precipitation, MM = Missing Value Source: Averaged Metar Reports

Daily Weather History Graph

Daily Weather History Graph

Search for Another Location

Airport or City:

Trip Planner

Search our weather history database for the weather conditions in past years. The results will help you decide how hot, cold, wet, or windy it might be!

Date:

Astronomy

Dec. 12, 2012 Rise Set
Actual Time 8:59 AM MSK 5:49 PM MSK
Civil Twilight 8:25 AM MSK 6:23 PM MSK
Nautical Twilight 7:48 AM MSK 7:00 PM MSK
Astronomical Twilight 7:13 AM MSK 7:35 PM MSK
Moon 7:38 AM MSK (12/12) 5:06 PM MSK (12/12)
Length of Visible Light 9h 57m
Length of Day
8h 50m
Waning Crescent, 2% of the Moon is Illuminated
Dec 12
Waning Crescent
Dec 13
New
Dec 20
First Quarter
Dec 28
Full
Jan 5
Last Quarter

Hourly Weather History & Observations

Time (MSK) Temp. Windchill Dew Point Humidity Pressure Visibility Wind Dir Wind Speed Gust Speed Precip Events Conditions
12:00 AM 35.6 °F 24.1 °F 33.8 °F 93% 29.83 in 6.2 mi East 22.4 mph - N/A Rain Light Rain
1:00 AM 38 °F - 35 °F 83% 29.84 in 6 mi East 15.7 mph - - Rain Light Rain Showers
1:00 AM 35.6 °F 24.1 °F 33.8 °F 93% 29.83 in 6.2 mi East 22.4 mph - N/A Rain Light Rain
2:00 AM 35.6 °F 24.1 °F 33.8 °F 93% 29.83 in 6.2 mi East 22.4 mph - N/A Rain Light Rain
3:00 AM 35.6 °F 24.1 °F 33.8 °F 93% 29.83 in 6.2 mi East 22.4 mph - N/A Rain Light Rain
4:00 AM 41 °F - 37 °F 80% 29.84 in 6 mi East 13.4 mph - -   Partly Cloudy
4:00 AM 37.4 °F 26.5 °F 33.8 °F 87% 29.83 in 6.2 mi East 22.4 mph - N/A Rain Light Rain
5:00 AM 37.4 °F 26.5 °F 33.8 °F 87% 29.86 in 6.2 mi East 22.4 mph - N/A   Overcast
6:00 AM 39.2 °F 28.9 °F 37.4 °F 93% 29.86 in 6.2 mi East 22.4 mph - N/A   Overcast
7:00 AM 48 °F - 46 °F 89% 29.90 in 6 mi SW 2.2 mph - - Rain Light Rain Showers
7:00 AM 42.8 °F 40.2 °F 41.0 °F 93% 29.89 in 6.2 mi SE 4.5 mph - N/A   Mostly Cloudy
8:00 AM 44.6 °F 40.8 °F 42.8 °F 93% 29.89 in 6.2 mi SSE 6.7 mph - N/A   Scattered Clouds
8:30 AM 44.6 °F 38.9 °F 42.8 °F 93% 29.92 in 6.2 mi SSE 11.2 mph - N/A   Mostly Cloudy
9:00 AM 44.6 °F 39.8 °F 42.8 °F 93% 29.92 in 6.2 mi SSE 8.9 mph - N/A   Mostly Cloudy
9:30 AM 46.4 °F 42.0 °F 42.8 °F 87% 29.92 in 6.2 mi SSE 8.9 mph - N/A   Mostly Cloudy
10:00 AM 52 °F - 46 °F 74% 29.93 in 6 mi SSW 24.6 mph - -   Partly Cloudy
10:00 AM 50.0 °F - 44.6 °F 82% 29.92 in 6.2 mi South 8.9 mph - N/A   Mostly Cloudy
10:30 AM 50.0 °F - 44.6 °F 82% 29.95 in 6.2 mi South 15.7 mph - N/A   Mostly Cloudy
11:00 AM 51.8 °F - 44.6 °F 76% 29.95 in 6.2 mi South 15.7 mph - N/A   Mostly Cloudy
11:30 AM 53.6 °F - 46.4 °F 77% 29.95 in 6.2 mi South 17.9 mph - N/A   Mostly Cloudy
12:00 PM 53.6 °F - 44.6 °F 72% 29.95 in 6.2 mi South 15.7 mph - N/A   Scattered Clouds
12:30 PM 55.4 °F - 44.6 °F 67% 29.95 in 6.2 mi South 20.1 mph - N/A   Scattered Clouds
1:00 PM 56 °F - 48 °F 68% 29.93 in 6 mi South 22.4 mph - -   Partly Cloudy
1:00 PM 57.2 °F - 44.6 °F 63% 29.92 in 6.2 mi South 20.1 mph 31.3 mph N/A   Mostly Cloudy
1:30 PM 55.4 °F - 44.6 °F 67% 29.92 in 6.2 mi South 20.1 mph - N/A   Mostly Cloudy
2:00 PM 57.2 °F - 44.6 °F 63% 29.95 in 6.2 mi South 20.1 mph - N/A   Mostly Cloudy
2:30 PM 57.2 °F - 44.6 °F 63% 29.95 in 6.2 mi South 22.4 mph 33.6 mph N/A   Mostly Cloudy
3:00 PM 59.0 °F - 44.6 °F 59% 29.95 in 6.2 mi South 22.4 mph 33.6 mph N/A   Mostly Cloudy
3:30 PM 57.2 °F - 44.6 °F 63% 29.95 in 6.2 mi South 22.4 mph - N/A   Mostly Cloudy
4:00 PM 55 °F - 50 °F 78% 29.96 in 6 mi South 22.4 mph - -   Partly Cloudy
4:00 PM 55.4 °F - 44.6 °F 67% 29.95 in 6.2 mi South 20.1 mph - N/A   Mostly Cloudy
4:30 PM 55.4 °F - 44.6 °F 67% 29.95 in 6.2 mi South 20.1 mph - N/A   Mostly Cloudy
5:00 PM 55.4 °F - 44.6 °F 67% 29.95 in 6.2 mi South 15.7 mph - N/A   Mostly Cloudy
5:30 PM 53.6 °F - 46.4 °F 77% 29.95 in 6.2 mi South 13.4 mph - N/A   Mostly Cloudy
6:00 PM 55.4 °F - 44.6 °F 67% 29.95 in 6.2 mi SSE 13.4 mph - N/A   Mostly Cloudy
6:30 PM 53.6 °F - 44.6 °F 72% 29.95 in 6.2 mi SSE 11.2 mph - N/A   Mostly Cloudy
7:00 PM 55 °F - 50 °F 78% 29.97 in 6 mi South 17.9 mph - -   Mostly Cloudy
7:00 PM 51.8 °F - 46.4 °F 82% 29.98 in 6.2 mi SSE 8.9 mph - N/A   Mostly Cloudy
7:30 PM 51.8 °F - 46.4 °F 82% 29.95 in 6.2 mi SSE 8.9 mph - N/A   Mostly Cloudy
8:00 PM 51.8 °F - 46.4 °F 82% 29.98 in 6.2 mi South 6.7 mph - N/A   Mostly Cloudy
9:00 PM 53.6 °F - 46.4 °F 77% 29.98 in 6.2 mi South 13.4 mph - N/A Rain Light Rain Showers
10:00 PM 53 °F - 45 °F 65% 29.99 in 6 mi SSW 17.9 mph - - Rain Light Rain Showers
10:00 PM 50.0 °F - 46.4 °F 87% 29.98 in 6.2 mi South 8.9 mph - N/A Rain Light Rain Showers
11:00 PM 48.2 °F - 44.6 °F 87% 29.98 in 6.2 mi South 6.7 mph - N/A Rain Light Rain Showers